ONEWEB-0094, 45450

Orbit data source: Space-Track

ONEWEB-0094, 45450 is a payload satellite owned by One Web (UK) in LEO that was launched on Sat, 21 Mar 2020 UTC via a SOYUZ-2-1B launch vehicle from the Tyuratam Missile And Space Complex (TTMTR). Payload-class satellites include a variety of spacecraft equipped with specific instruments for various scientific and technological missions. These include communications satellites like Starlink; space stations such as the ISS; scientific satellites like the Hubble; Earth observation satellites from companies like Planet Labs, Umbra, and HawkEye 360; GPS; miniature CubeSats for education and research; and military/defense satellites.

Loading next visibility...
Identifier
45450, 2020-020AC
Orbit
LEO
Country
Flag of UKUK
Related business
Manufacturer
One Web
Mission
Operational Commercial Communications
Bus & Motor
ARROW, Unknown motor
Mass
148 kg wet, ~140 kg dry
Launch date (UTC)
2020-03-21 (6 years ago)
Launch vehicle
SOYUZ-2-1B
Launch site
Tyuratam Missile And Space Complex (TTMTR)
Object type
Payload
Rocket body
Debris
Shape & HBR
Trap Box + 2 Pan, 6.7 m
Radar Cross Section
3.464 m², Medium (>0.1 m² and < 1m²)

Expand to show TLE details & history
Last TLE update: 10 hours ago

TLE from 10 hours ago
0 ONEWEB-0094
1 45450U 20020AC  25355.20855713  .00000005  00000-0 -19212-4 0  9998
2 45450  87.9114  41.2224 0001861  94.3547 265.7798 13.17647732282875
Epoch: 2025-12-21T05:00Z
TLE epoch observation values (Epoch: 2025-12-21T05:00:19.336Z)
Latitude
0.00009°
Longitude
-123.88246°
Altitude
1,196.721 km
Speed
7.255 km/s
True Right ascension
02h 44m 53s
True Declination
0° 00' 00"
Sunlit
Object was in full shadow at epoch
Visualization orbit readout
Latitude
Unknown
Longitude
Unknown
Altitude
Unknown
Speed
Unknown
Apparent Right ascension
Unknown
Apparent Declination
Unknown
Sunlit
N/A
Visualization observer readout
Local Sidereal Time
14:01:02
Azimuth
Unknown
Elevation
Unknown
Doppler factor
Unknown
Orbital elements
Apogee altitude
1,192.236 km
Perigee altitude
1,189.418 km
Semi-major axis
7,568.964 km
Eccentricity
0.00019
Inclination
87.9114°
RAAN
41.2224°
Arg. of periapsis
94.3547°
True anomaly
265.75853°
Mean anomaly
265.7798°
Eccentric anomaly
265.76917°
Mean motion
3.29601 °/min
Orbital period
109.22 mins
BSTAR
-0.000019212
Loading maneuver chart data...
Computing Atmospheric mass density...
Loading historical data...
Loading historical data...
Loading historical data...
Loading historical data...
Loading historical data...
Loading historical data...
Loading historical data...

Documentation

Showing up to 5 results
|